Laconia, NH

2:34 PM EST on November 20, 2019 (GMT -0500)
Laconia Municipal

Weather History for KLCI - September, 2019

Change the Weather History Date:

Sunday, September 29, 2019

  Actual Average Record
Temperature  
Mean Temperature 58 °F -  
Max Temperature 69 °F 66 °F 76 °F (1990)
Min Temperature 44 °F 42 °F 26 °F (2000)
Degree Days  
Heating Degree Days 6    
Growing Degree Days 8 (Base 50)    
Moisture  
Dew Point 47 °F    
Average Humidity 62    
Maximum Humidity 90    
Minimum Humidity 37    
Precipitation  
Precipitation 0.00 in - - ()
Sea Level Pressure  
Sea Level Pressure 30.24 in    
Wind  
Wind Speed 4 mph ()    
Max Wind Speed 15 mph    
Max Gust Speed 21 mph    
Visibility 10.0 miles    
Events      
Averages and records for this station are not official NWS values.
T = Trace of Precipitation, MM = Missing Value Source: Averaged Metar Reports

Daily Weather History Graph

Daily Weather History Graph

Search for Another Location

Airport or City:

Astronomy

Sep. 29, 2019 Rise Set
Actual Time 6:40 AM EDT 6:30 PM EDT
Civil Twilight 6:12 AM EDT 6:59 PM EDT
Nautical Twilight 5:38 AM EDT 7:32 PM EDT
Astronomical Twilight 5:04 AM EDT 8:06 PM EDT
Moon 7:27 AM EDT (9/29) 7:28 PM EDT (9/29)
Length of Visible Light 12h 47m
Length of Day
11h 50m
New Moon, 1% of the Moon is Illuminated
Sep 29
New Moon
Oct 5
First Quarter
Oct 13
Full
Oct 21
Last Quarter
Oct 27
New

Hourly Weather History & Observations

Time (EDT) Temp. Dew Point Humidity Pressure Visibility Wind Dir Wind Speed Gust Speed Precip Events Conditions
12:56 AM 66.0 °F 63.0 °F 90% 30.05 in 10.0 mi Calm Calm - N/A   Partly Cloudy
1:56 AM 69.1 °F 63.0 °F 81% 30.06 in 10.0 mi Variable 5.8 mph - N/A   Overcast
2:24 AM 69.8 °F 62.6 °F 78% 30.08 in 10.0 mi WNW 6.9 mph - N/A   Overcast
2:56 AM 66.9 °F 61.0 °F 81% 30.07 in 10.0 mi West 4.6 mph - N/A   Overcast
3:37 AM 66.2 °F 59.0 °F 78% 30.09 in 10.0 mi Variable 3.5 mph - N/A   Overcast
3:56 AM 64.9 °F 59.0 °F 81% 30.09 in 10.0 mi Calm Calm - N/A   Scattered Clouds
4:56 AM 63.0 °F 55.9 °F 78% 30.13 in 10.0 mi Calm Calm - N/A   Partly Cloudy
5:56 AM 61.0 °F 54.0 °F 78% 30.17 in 10.0 mi Calm Calm - N/A   Clear
6:56 AM 60.1 °F 52.0 °F 75% 30.20 in 10.0 mi Variable 4.6 mph - N/A   Clear
7:56 AM 61.0 °F 50.0 °F 67% 30.24 in 10.0 mi WNW 8.1 mph - N/A   Clear
8:56 AM 60.1 °F 48.0 °F 64% 30.26 in 10.0 mi WNW 10.4 mph 20.7 mph N/A   Clear
9:56 AM 61.0 °F 46.9 °F 60% 30.29 in 10.0 mi WNW 13.8 mph 18.4 mph N/A   Clear
10:56 AM 63.0 °F 41.0 °F 45% 30.30 in 10.0 mi NNW 10.4 mph - N/A   Clear
11:56 AM 64.9 °F 43.0 °F 45% 30.30 in 10.0 mi WNW 6.9 mph - N/A   Clear
12:56 PM 64.0 °F 37.9 °F 38% 30.29 in 10.0 mi NW 12.7 mph - N/A   Clear
1:56 PM 64.9 °F 37.9 °F 37% 30.27 in 10.0 mi NW 15.0 mph - N/A   Clear
2:56 PM 63.0 °F 39.0 °F 41% 30.28 in 10.0 mi WNW 8.1 mph - N/A   Clear
3:56 PM 63.0 °F 39.9 °F 43% 30.29 in 10.0 mi WSW 9.2 mph - N/A   Clear
4:56 PM 63.0 °F 37.9 °F 40% 30.29 in 10.0 mi WNW 5.8 mph - N/A   Clear
5:56 PM 61.0 °F 37.0 °F 41% 30.30 in 10.0 mi WSW 4.6 mph - N/A   Clear
6:56 PM 57.9 °F 37.0 °F 46% 30.30 in 10.0 mi Variable 3.5 mph - N/A   Clear
7:56 PM 54.0 °F 37.0 °F 53% 30.33 in 10.0 mi SSW 3.5 mph - N/A   Clear
8:56 PM 53.1 °F 37.0 °F 55% 30.35 in 10.0 mi Calm Calm - N/A   Clear
9:56 PM 51.1 °F 37.9 °F 61% 30.35 in 10.0 mi West 5.8 mph - N/A   Clear
10:56 PM 48.9 °F 39.0 °F 69% 30.37 in 10.0 mi Calm Calm - N/A   Clear
11:56 PM 44.1 °F 39.0 °F 82% 30.38 in 10.0 mi Calm Calm - N/A   Clear